SHENZHOU-12

Last updated on Wed Jul 07 2021 00:02:03 GMT+0000 (Coordinated Universal Time)

1 48852U 21053A 21187.43057773 -.00007527 00000-0 -78609-4 0 9990 2 48852 41.4686 165.7060 0006749 73.7285 63.3163 15.62390347 10701
UTC large
Height (km)
Speed (km/s)
/
Latitude / Longitude
Inclination (degrees)
Orbital Period (minutes)
Azimuth
Elevation
Range (km)
Doppler Factor

Next 0 passes for location: London (51.5072 / 0.1276)

Sorry there are no passes over London.